This is the latest recevied weather packets stored in our database for station/object OE6JUE. If no packets are shown the sender has not sent any weather packets the latest 10 day(s).
| Time | Temp. | Humidity | Pressure | Rain* | Wind** | Luminosity | Snow |
|---|---|---|---|---|---|---|---|
| 1777641713 | 20° C | 30% | 1027 hPa | 0 mm | - | - | - |
| 1777641412 | 20° C | 27% | 1027 hPa | 0 mm | - | - | - |
| 1777641113 | 20.56° C | 30% | 1027.1 hPa | 0 mm | - | - | - |
| 1777640813 | 20° C | 27% | 1027.3 hPa | 0 mm | - | - | - |
| 1777640513 | 20° C | 27% | 1027.4 hPa | - | - | - | - |
| 1777640213 | 20° C | 27% | 1027.6 hPa | 0 mm | - | - | - |
| 1777639913 | 21.11° C | 26% | 1027.4 hPa | 0 mm | - | - | - |
| 1777639613 | 21.11° C | 26% | 1027.6 hPa | 0 mm | - | - | - |
| 1777639313 | 20° C | 27% | 1027.4 hPa | 0 mm | - | - | - |
| 1777639013 | 20° C | 27% | 1027.6 hPa | 0 mm | - | - | - |
| 1777638713 | 20.56° C | 27% | 1027.7 hPa | 0 mm | - | - | - |
| 1777638412 | 20.56° C | 28% | 1027.7 hPa | 0 mm | - | - | - |
| 1777638113 | 20° C | 28% | 1027.7 hPa | 0 mm | - | - | - |
| 1777637813 | 19.44° C | 30% | 1027.8 hPa | 0 mm | - | - | - |
| 1777637512 | 20° C | 30% | 1027.6 hPa | 0 mm | - | - | - |
| 1777637213 | 20.56° C | 30% | 1027.7 hPa | 0 mm | - | - | - |
| 1777636913 | 20° C | 30% | 1027.7 hPa | - | - | - | - |
| 1777636613 | 18.89° C | 30% | 1027.8 hPa | 0 mm | - | - | - |
| 1777636313 | 19.44° C | 30% | 1027.8 hPa | 0 mm | - | - | - |
| 1777636013 | 19.44° C | 30% | 1028 hPa | 0 mm | - | - | - |
| 1777635713 | 19.44° C | 27% | 1028 hPa | 0 mm | - | - | - |
| 1777635413 | 20° C | 28% | 1028 hPa | 0 mm | - | - | - |
| 1777635113 | 20° C | 30% | 1028.2 hPa | 0 mm | - | - | - |
| 1777634813 | 19.44° C | 30% | 1028 hPa | 0 mm | - | - | - |
| 1777634513 | 18.89° C | 30% | 1028.1 hPa | 0 mm | - | - | - |
* Rain latest hour (hover to see other rain measurements)
** Current wind speed in m/s (hover to see current wind gust speed)